CT1AKV-10 Estrada Real PT current weather conditions

sailwx.info

Wind from 323 at 3 knots gusting 8

Air temperature 12.2° C
Dewpoint 12.1° C

Last reported at 2015-Apr-20 22:15 UTC.
Time now 2015-Apr-21 09:50 UTC

Location: N 39°11' W 008°44'.
View on Google Maps.

See reports from other nearby stations

  
Tides and Currents Weather Stations Pressure Air Temp Water Temp Dewpoint Dewpoint Depression Visibility Wind Speed Wind Dir Waves Ship Positions
date/time (UTC)wind fromknots sea level pressurealtimeterstation pressurevisibilityair tempwater tempwave heightnotes
2015-Apr-20 22:15 323 3 gusting 8 12.2
2015-Apr-20 22:00 316 3 gusting 7 12.8
2015-Apr-20 21:45 292 3 gusting 8 12.8
2015-Apr-20 21:30 300 3 gusting 8 12.8
2015-Apr-20 21:15 299 3 gusting 7 13.3
2015-Apr-20 21:00 297 3 gusting 6 13.3
2015-Apr-20 20:45 310 3 gusting 6 13.9
2015-Apr-20 20:30 302 2 gusting 6 13.9
2015-Apr-20 20:15 282 3 gusting 9 14.4
2015-Apr-20 20:00 313 3 gusting 8 15.0
2015-Apr-20 19:45 298 4 gusting 9 15.0
2015-Apr-20 19:30 304 4 gusting 10 15.6
2015-Apr-20 19:15 294 3 gusting 9 16.1
2015-Apr-20 19:00 285 5 gusting 17 17.2
2015-Apr-20 18:45 311 5 gusting 11 18.3
2015-Apr-20 18:30 286 5 gusting 13 20.0
2015-Apr-20 18:15 314 6 gusting 13 20.6
2015-Apr-20 18:00 319 5 gusting 13 21.7
2015-Apr-20 17:45 308 5 gusting 13 21.7
2015-Apr-20 17:30 300 5 gusting 11 22.8
2015-Apr-20 17:15 307 4 gusting 9 23.9
2015-Apr-20 17:00 331 4 gusting 9 23.9
2015-Apr-20 16:45 308 5 gusting 13 24.4
2015-Apr-20 16:30 309 3 gusting 9 25.6
2015-Apr-20 16:15 304 3 gusting 9 25.0
2015-Apr-20 16:00 308 2 gusting 7 25.6
2015-Apr-20 15:45 312 0 gusting 3 24.4
2015-Apr-20 15:30 313 1 gusting 3 27.2
2015-Apr-20 15:15 348 1 gusting 6 27.8
2015-Apr-20 14:45 032 1 gusting 6 27.8
2015-Apr-20 14:30 064 0 gusting 4 27.8
2015-Apr-20 14:15 160 1 gusting 6 27.2
2015-Apr-20 14:00 305 0 gusting 3 28.3
2015-Apr-20 13:45 102 0 gusting 3 28.3
2015-Apr-20 13:30 040 0 gusting 4 28.3
2015-Apr-20 13:15 128 27.8
2015-Apr-20 13:00 097 1 gusting 6 27.2
2015-Apr-20 12:45 106 0 gusting 6 27.8
2015-Apr-20 12:30 152 0 gusting 3 26.7
2015-Apr-20 12:15 046 0 gusting 3 26.7
2015-Apr-20 12:00 219 0 gusting 4 26.1
2015-Apr-20 11:45 334 26.7
2015-Apr-20 11:30 279 0 gusting 3 26.1
2015-Apr-20 11:00 035 25.0
2015-Apr-20 10:45 086 1 gusting 5 23.9
2015-Apr-20 10:30 286 0 gusting 3 23.3
2015-Apr-20 10:15 028 0 gusting 4 22.8
2015-Apr-20 10:00 102 0 gusting 4 22.8
2015-Apr-20 09:45 091 22.2
2015-Apr-20 09:30 112 0 gusting 3 22.2
2015-Apr-20 09:15 318 22.2
2015-Apr-20 09:00 354 0 gusting 2 21.1
2015-Apr-20 08:45 20.6
2015-Apr-20 08:30 356 19.4
2015-Apr-20 08:15 313 18.9
2015-Apr-20 08:00 271 16.7
2015-Apr-20 07:45 12.2
2015-Apr-20 07:30 10.0
2015-Apr-20 07:15 9.4
2015-Apr-20 07:00 8.9
2015-Apr-20 06:45 8.3
2015-Apr-20 06:30 7.8
2015-Apr-20 06:15 7.8
2015-Apr-20 06:00 7.8
2015-Apr-20 05:45 7.8
2015-Apr-20 05:30 7.8
2015-Apr-20 05:15 7.8
2015-Apr-20 05:00 7.8
2015-Apr-20 04:45 7.8
2015-Apr-20 04:30 7.8
2015-Apr-20 04:15 7.8
2015-Apr-20 04:00 7.8
2015-Apr-20 03:45 7.8
2015-Apr-20 03:30 8.3
2015-Apr-20 03:15 8.9
2015-Apr-20 03:00 293 0 gusting 2 8.9
2015-Apr-20 02:45 299 9.4
2015-Apr-19 21:15 296 2 gusting 6 11.7
2015-Apr-19 21:00 302 2 gusting 6 11.7
2015-Apr-19 20:45 303 3 gusting 6 12.2
2015-Apr-19 20:30 321 3 gusting 7 12.2
2015-Apr-19 20:15 317 3 gusting 7 12.8
2015-Apr-19 20:00 310 2 gusting 6 13.3
2015-Apr-19 19:45 324 2 gusting 7 13.3
2015-Apr-19 19:30 314 3 gusting 6 13.9
2015-Apr-19 19:15 288 4 gusting 10 15.0
2015-Apr-19 19:00 323 3 gusting 6 15.6
2015-Apr-19 18:45 265 3 gusting 9 17.2
2015-Apr-19 18:30 313 3 gusting 9 18.9
2015-Apr-19 18:15 292 4 gusting 9 19.4
2015-Apr-19 18:00 308 4 gusting 11 20.0
2015-Apr-19 17:45 305 5 gusting 13 20.6
2015-Apr-19 17:30 309 5 gusting 10 20.6
2015-Apr-19 17:15 311 5 gusting 12 21.1
2015-Apr-19 17:00 311 5 gusting 11 21.7
2015-Apr-19 16:45 318 4 gusting 9 22.2
2015-Apr-19 16:30 281 5 gusting 10 21.7
2015-Apr-19 16:15 306 4 gusting 13 22.2
2015-Apr-19 16:00 315 4 gusting 12 22.2
2015-Apr-19 15:45 291 4 gusting 12 22.2
2015-Apr-19 15:30 318 4 gusting 12 22.8
2015-Apr-19 15:15 304 4 gusting 13 23.3
2015-Apr-19 15:00 311 5 gusting 13 22.8
2015-Apr-19 14:45 291 4 gusting 12 23.3
2015-Apr-19 14:30 298 4 gusting 13 23.3
2015-Apr-19 14:15 283 3 gusting 10 23.9
2015-Apr-19 14:00 298 4 gusting 11 23.9
2015-Apr-19 13:45 319 4 gusting 10 22.8
2015-Apr-19 13:30 315 3 gusting 8 23.9
2015-Apr-19 13:15 292 2 gusting 7 25.0
2015-Apr-19 13:00 284 3 gusting 9 23.9
2015-Apr-19 12:45 322 3 gusting 8 23.3
2015-Apr-19 12:30 275 1 gusting 6 24.4
2015-Apr-19 12:15 297 2 gusting 7 23.3
2015-Apr-19 12:00 311 2 gusting 8 22.2
2015-Apr-19 11:45 317 1 gusting 6 22.2
2015-Apr-19 11:30 305 2 gusting 7 22.2
2015-Apr-19 11:15 332 2 gusting 6 21.7
2015-Apr-19 11:00 300 2 gusting 7 20.0
2015-Apr-19 10:45 333 2 gusting 6 21.7
2015-Apr-19 10:30 327 2 gusting 6 21.7
2015-Apr-19 10:15 314 3 gusting 9 20.6
2015-Apr-19 10:00 347 3 gusting 9 21.1
2015-Apr-19 09:45 281 2 gusting 6 19.4
2015-Apr-19 09:30 281 2 gusting 6 19.4
2015-Apr-19 09:15 281 2 gusting 6 19.4
2015-Apr-19 09:00 281 2 gusting 6 19.4